Location: *
(51.5000°N, 0.1100°W)
Time: 07:23:54
(UTC+00:00)

Cosmos 1455 - Pass Details

Date: 13 August 2024
Orbit: 432 x 446 km, 82.5° (Epoch: 07 September)

Event Time Altitude Azimuth Distance (km) Brightness Sun altitude
Exits shadow 03:48:51 - 194° (SSW) 1,990 4.7 -8.1°
Reaches altitude 10° 03:49:50 10° 195° (SSW) 1,581 4.2 -8.0°
Maximum altitude 03:53:16 75° 281° (W) 471 1.9 -7.6°
Drops below altitude 10° 03:56:49 - 8° (N) 1,626 5.4 -7.1°
Sets 03:58:47 0° 10° (N) 2,452 6.4 -6.9°
